Location: Ústí nad Labem
(50.6611°N, 14.0531°E)
Time: 00:29:23
(UTC+02:00)

S-56A Canister/Altair - Pass Details

Date: 23 April 2024
Orbit: 638 x 2488 km, 38.9° (Epoch: 28 May)

Event Time Altitude Azimuth Distance (km) Brightness Sun altitude
Rises 23:25:18 0° 261° (W) 4,215 11.5 -23.0°
Reaches altitude 10° 23:30:44 10° 231° (SW) 3,699 10.9 -23.4°
Maximum altitude 23:33:32 12° 214° (SW) 3,794 10.7 -23.5°
Enters shadow 23:34:20 11° 210° (SSW) 3,864 10.7 -23.6°
